Preview of NWS' New Version of Forecast
This preview is not operational and should not be used for support decisions.

Regional Weather Roundup (RWR)

Issued by National Weather Service (NWS)

                            
000
ASUS43 KLSX 220157
RWRMO 

WEATHER SUMMARY FOR MISSOURI
NATIONAL WEATHER SERVICE SPRINGFIELD MO
900 PM CDT SUN JUL 21 2019

NOTE: "FAIR" INDICATES FEW OR NO CLOUDS BELOW 12,000 FEET WITH NO
       SIGNIFICANT WEATHER AND/OR OBSTRUCTIONS TO VISIBILITY.
       CURRENT SKY AND/OR WEATHER CONDITIONS ARE NOT AVAILABLE FOR
       CHILLICOTHE AND FARMINGTON.

MOZ001>031-035>038-043-044-053-054-220300-
...NORTHERN AND WESTERN MISSOURI...
  
CITY           SKY/WX    TMP DP  RH WIND       PRES   REMARKS
KANSAS CTY INT CLOUDY    73  72  96 N15G28    29.99R                  
KANSAS C DTWN  TSTM      76  71  85 N13G23    29.97R                  
LEE'S SUMMIT   RAIN      75  70  84 N18G28    29.97R                  
ST JOSEPH      LGT RAIN  72  69  90 N8        30.03R FOG              
CHILLICOTHE      N/A     74  72  93 N10G18    30.00F                  
     
$$
MOZ066>068-077>081-088>096-101>105-220300-
...SOUTHWEST MISSOURI...
  
CITY           SKY/WX    TMP DP  RH WIND       PRES   REMARKS
SPRINGFIELD    CLEAR     84  72  67 CALM      29.92S                  
JOPLIN         CLEAR     85  74  69 S6        29.88F HX  92           
BRANSON        PTCLDY    82  73  74 S6        29.95S                  
               
$$
MOZ032>034-039>042-045>050-055>058-069>072-220300-
...CENTRAL MISSOURI...  
  
CITY           SKY/WX    TMP DP  RH WIND       PRES   REMARKS
COLUMBIA       NOT AVBL                                               
ROLLA          CLEAR     80  73  79 NE5       29.96R                  
SEDALIA        CLOUDY    76  73  91 NE3       29.95R THUNDER          
WARRENSBURG    MOCLDY    72  70  94 N6        29.95F                  
               
$$
MOZ051-052-059>065-220300-
...EAST CENTRAL MISSOURI...
  
CITY           SKY/WX    TMP DP  RH WIND       PRES   REMARKS
ST LOUIS INTL  PTCLDY    85  71  63 N10       29.93R HX  90           
                   
$$
MOZ072>076-082>087-097>100-106>115-220300-
...SOUTH CENTRAL AND SOUTHEAST MISSOURI...
  
CITY           SKY/WX    TMP DP  RH WIND       PRES   REMARKS
CAPE GIRARDEAU FAIR      84  76  76 SW5       29.89S THUNDER HX  93   
POPLAR BLUFF   FAIR      84  79  85 CALM      29.90R HX  96           
WEST PLAINS    CLEAR     83  73  72 CALM      29.96R                  
                                       
$$